This is the latest recevied weather packets stored in our database for station/object DM3DP. If no packets are shown the sender has not sent any weather packets the latest 10 day(s).
| Time | Temp. | Humidity | Pressure | Rain* | Wind** | Luminosity | Snow |
|---|---|---|---|---|---|---|---|
| 1778241263 | 17.22° C | 69% | 1015.8 hPa | 0 mm | - | 98 W/m² | - |
| 1778240933 | 17.22° C | 71% | 1015.8 hPa | 0 mm | - | 99 W/m² | - |
| 1778240603 | 16.67° C | 70% | 1015.8 hPa | 0 mm | - | 103 W/m² | - |
| 1778240273 | 17.22° C | 69% | 1015.8 hPa | 0 mm | - | 99 W/m² | - |
| 1778239943 | 17.22° C | 69% | 1015.9 hPa | 0 mm | - | 98 W/m² | - |
| 1778239613 | 17.22° C | 71% | 1015.9 hPa | 0 mm | - | 96 W/m² | - |
| 1778239283 | 17.22° C | 72% | 1015.9 hPa | 0 mm | - | 100 W/m² | - |
| 1778238953 | 17.22° C | 72% | 1016 hPa | 0 mm | - | 111 W/m² | - |
| 1778238624 | 17.78° C | 74% | 1016 hPa | 0 mm | - | 129 W/m² | - |
| 1778238293 | 17.78° C | 73% | 1016 hPa | 0 mm | - | 143 W/m² | - |
| 1778237963 | 17.78° C | 73% | 1016 hPa | 0 mm | - | 151 W/m² | - |
| 1778237633 | 18.33° C | 72% | 1016 hPa | 0 mm | - | 156 W/m² | - |
| 1778237303 | 18.33° C | 73% | 1016.1 hPa | 0 mm | - | 476 W/m² | - |
| 1778236973 | 18.33° C | 73% | 1016.1 hPa | 0 mm | - | 331 W/m² | - |
| 1778236643 | 18.33° C | 70% | 1016.1 hPa | 0 mm | - | 605 W/m² | - |
| 1778236313 | 14.44° C | 70% | 1016.1 hPa | 0 mm | - | 699 W/m² | - |
| 1778235983 | 14.44° C | 76% | 1016.1 hPa | 0 mm | - | 755 W/m² | - |
| 1778235654 | 14.44° C | 73% | 1016.1 hPa | 0 mm | - | 563 W/m² | - |
| 1778235324 | 14.44° C | 78% | 1016.1 hPa | 0 mm | - | 572 W/m² | - |
| 1778234993 | 14.44° C | 78% | 1016.2 hPa | 0 mm | - | 608 W/m² | - |
| 1778234663 | 14.44° C | 80% | 1016.2 hPa | 0 mm | - | 528 W/m² | - |
| 1778234333 | 14.44° C | 80% | 1016.2 hPa | 0 mm | - | 735 W/m² | - |
| 1778234004 | 14.44° C | 82% | 1016.3 hPa | 0 mm | - | 807 W/m² | - |
| 1778233674 | 14.44° C | 82% | 1016.3 hPa | 0 mm | - | 744 W/m² | - |
| 1778233343 | 14.44° C | 78% | 1016.3 hPa | 0 mm | - | 604 W/m² | - |
* Rain latest hour (hover to see other rain measurements)
** Current wind speed in m/s (hover to see current wind gust speed)